EW7149 Weather Reports


Display with metric or nautical units.
time (UTC)temp
F
wind
direction
speed
MPH
gust
MPH
rain 1hr
in
rain 24hr
in
rain mn
in
humidity
%
barometer
mb
20260906162434 78 270 1.0 0.0 0.00 0.00 0.00 46 1015.2
20260906161918 78 290 0.0 5.0 0.00 0.00 0.00 48 1015.3
20260906160125 78 271 1.0 6.0 0.00 0.00 0.00 47 1015.3
20260906155630 78 288 1.0 6.0 0.00 0.00 0.00 46 1015.3
20260906155124 78 302 0.0 6.0 0.00 0.00 0.00 47 1015.4
20260906154612 77 5 0.0 1.0 0.00 0.00 0.00 45 1015.4
20260906154102 77 5 0.0 6.0 0.00 0.00 0.00 44 1015.4
20260906153558 77 9 0.0 6.0 0.00 0.00 0.00 44 1015.3
20260906153059 77 308 0.0 6.0 0.00 0.00 0.00 45 1015.4
20260906152553 77 121 0.0 3.0 0.00 0.00 0.00 42 1015.3
20260906150811 76 298 0.0 3.0 0.00 0.00 0.00 27 1015.4
20260906150257 76 75 0.0 2.0 0.00 0.00 0.00 25 1015.4
20260906145804 75 79 0.0 3.0 0.00 0.00 0.00 29 1015.4
20260906145255 75 80 0.0 3.0 0.00 0.00 0.00 26 1015.3
20260906144747 75 58 0.0 3.0 0.00 0.00 0.00 7 1015.3
20260906144242 74 281 0.0 3.0 0.00 0.00 0.00 1 1015.3
20260906142448 72 63 0.0 3.0 0.00 0.00 0.00 1 1015.1
20260906141930 71 63 0.0 3.0 0.00 0.00 0.00 1 1015.2
20260906141419 70 64 0.0 3.0 0.00 0.00 0.00 1 1015.3
20260906140905 69 76 0.0 4.0 0.00 0.00 0.00 1 1015.3
20260906140347 68 265 0.0 2.0 0.00 0.00 0.00 1 1015.2
20260906135850 68 308 0.0 2.0 0.00 0.00 0.00 1 1015.2
20260906135359 68 74 0.0 4.0 0.00 0.00 0.00 1 1015.1
20260906134842 68 252 0.0 2.0 0.00 0.00 0.00 1 1015.1
20260906134339 67 252 0.0 2.0 0.00 0.00 0.00 1 1015.0
20260906133821 67 292 0.0 5.0 0.00 0.00 0.00 1 1015.0
20260906132024 66 355 0.0 4.0 0.00 0.00 0.00 1 1015.0
20260906131507 66 5 0.0 3.0 0.00 0.00 0.00 1 1015.1
20260906130316 65 346 0.0 1.0 0.00 0.00 0.00 1 1015.0
20260906125813 64 346 0.0 1.0 0.00 0.00 0.00 1 1015.0
20260906125306 64 348 0.0 1.0 0.00 0.00 0.00 1 1015.0
20260906124813 64 344 0.0 0.0 0.00 0.00 0.00 1 1014.9
20260906123644 63 345 0.0 0.0 0.00 0.00 0.00 1 1014.9
20260906123125 62 345 0.0 0.0 0.00 0.00 0.00 1 1014.8
20260906122613 62 345 0.0 0.0 0.00 0.00 0.00 1 1014.6
20260906122106 62 345 0.0 0.0 0.00 0.00 0.00 1 1014.6
20260906121552 62 345 0.0 0.0 0.00 0.00 0.00 1 1014.6
20260906121037 62 345 0.0 0.0 0.00 0.00 0.00 1 1014.5
20260906120529 61 345 0.0 0.0 0.00 0.00 0.00 1 1014.4
20260906120019 61 345 0.0 0.0 0.00 0.00 0.00 1 1014.5
20260906115526 61 345 0.0 0.0 0.00 0.00 0.00 1 1014.4
20260906113722 60 355 0.0 0.0 0.00 0.00 0.00 1 1014.3
20260906113206 60 355 0.0 0.0 0.00 0.00 0.00 1 1014.2
20260906112716 60 355 0.0 0.0 0.00 0.00 0.00 1 1014.1
20260906112223 60 355 0.0 0.0 0.00 0.00 0.00 1 1014.1
20260906111719 60 355 0.0 0.0 0.00 0.00 0.00 1 1014.1
20260906111228 60 355 0.0 0.0 0.00 0.00 0.00 1 1014.1
20260906110114 60 355 0.0 0.0 0.00 0.00 0.00 1 1013.8
20260906105559 60 355 0.0 0.0 0.00 0.00 0.00 1 1013.9
20260906105101 60 355 0.0 0.0 0.00 0.00 0.00 1 1013.8
20260906104608 60 355 0.0 0.0 0.00 0.00 0.00 1 1013.8
20260906104101 60 355 0.0 0.0 0.00 0.00 0.00 1 1013.7
20260906103608 60 355 0.0 0.0 0.00 0.00 0.00 1 1013.6
20260906103108 60 355 0.0 0.0 0.00 0.00 0.00 1 1013.5
20260906102603 60 355 0.0 0.0 0.00 0.00 0.00 1 1013.4
20260906101431 60 349 0.0 0.0 0.00 0.00 0.00 1 1013.2
20260906100921 60 349 0.0 0.0 0.00 0.00 0.00 1 1013.2
20260906100420 61 349 0.0 0.0 0.00 0.00 0.00 1 1013.3
20260906095918 61 349 0.0 0.0 0.00 0.00 0.00 1 1013.2
20260906094727 61 349 0.0 0.0 0.00 0.00 0.00 1 1013.0
20260906093612 61 349 0.0 0.0 0.00 0.00 0.00 1 1013.0
20260906093115 61 349 0.0 0.0 0.00 0.00 0.00 1 1012.9
20260906092602 61 349 0.0 0.0 0.00 0.00 0.00 1 1012.9
20260906092105 61 349 0.0 0.0 0.00 0.00 0.00 1 1012.9
20260906091601 61 350 0.0 0.0 0.00 0.00 0.00 1 1012.8
20260906091056 61 350 0.0 0.0 0.00 0.00 0.00 1 1012.6
20260906090603 61 349 0.0 0.0 0.00 0.00 0.00 1 1012.6
20260906090046 61 349 0.0 0.0 0.00 0.00 0.00 1 1012.5
20260906085537 61 349 0.0 0.0 0.00 0.00 0.00 1 1012.5
20260906085026 61 349 0.0 0.0 0.00 0.00 0.00 1 1012.5
20260906084530 61 349 0.0 0.0 0.00 0.00 0.00 1 1012.5
20260906084031 61 349 0.0 0.0 0.00 0.00 0.00 1 1012.4
20260906083512 61 349 0.0 0.0 0.00 0.00 0.00 1 1012.5
20260906083000 61 349 0.0 0.0 0.00 0.00 0.00 1 1012.5
20260906082500 61 349 0.0 0.0 0.00 0.00 0.00 1 1012.5
20260906081956 62 349 0.0 0.0 0.00 0.00 0.00 1 1012.6
20260906081445 61 349 0.0 0.0 0.00 0.00 0.00 1 1012.5
20260906080949 61 349 0.0 0.0 0.00 0.00 0.00 1 1012.5
20260906080450 61 349 0.0 0.0 0.00 0.00 0.00 1 1012.4
20260906075939 61 349 0.0 0.0 0.00 0.00 0.00 1 1012.3
20260906074757 61 349 0.0 0.0 0.00 0.00 0.00 1 1012.3
20260906074304 61 349 0.0 0.0 0.00 0.00 0.00 1 1012.2
20260906073746 62 349 0.0 0.0 0.00 0.00 0.00 1 1012.2
20260906073244 62 349 0.0 0.0 0.00 0.00 0.00 1 1012.2
20260906072731 62 349 0.0 0.0 0.00 0.00 0.00 1 1012.2
20260906072231 62 349 0.0 0.0 0.00 0.00 0.00 1 1012.2
20260906071053 61 349 0.0 0.0 0.00 0.00 0.00 1 1012.1
20260906070604 62 349 0.0 0.0 0.00 0.00 0.00 1 1012.1
20260906070104 62 349 0.0 0.0 0.00 0.00 0.00 1 1012.1
20260906065547 62 349 0.0 0.0 0.00 0.00 0.00 1 1012.1
20260906065035 62 349 0.0 0.0 0.00 0.00 0.00 1 1012.1
20260906064531 62 349 0.0 0.0 0.00 0.00 0.00 1 1012.1
20260906064013 62 349 0.0 0.0 0.00 0.00 0.00 1 1012.1
20260906062904 62 349 0.0 0.0 0.00 0.00 0.00 1 1012.2
20260906062401 62 349 0.0 0.0 0.00 0.00 0.00 1 1012.3
20260906061844 62 349 0.0 0.0 0.00 0.00 0.00 1 1012.4
20260906061347 62 349 0.0 0.0 0.00 0.00 0.00 1 1012.3
20260906060235 62 349 0.0 0.0 0.00 0.00 0.00 1 1012.2
20260906055727 62 350 0.0 0.0 0.00 0.00 0.00 1 1012.2
20260906055235 62 350 0.0 0.0 0.00 0.00 0.00 1 1012.2
20260906054721 62 349 0.0 0.0 0.00 0.00 0.00 1 1012.2
20260906052947 62 350 0.0 0.0 0.00 0.00 0.00 1 1012.3
20260906052432 62 350 0.0 0.0 0.00 0.00 0.00 1 1012.3
20260906051928 62 350 0.0 0.0 0.00 0.00 0.00 1 1012.4
20260906051410 62 350 0.0 0.0 0.00 0.00 0.00 1 1012.4
20260906050901 62 350 0.0 0.0 0.00 0.00 0.00 1 1012.5
20260906050356 62 350 0.0 0.0 0.00 0.00 0.00 1 1012.5
20260906045902 62 349 0.0 0.0 0.00 0.00 0.00 1 1012.6
20260906045354 62 350 0.0 0.0 0.00 0.00 0.00 1 1012.5
20260906044902 62 350 0.0 0.0 0.00 0.00 0.00 1 1012.6
20260906044349 62 350 0.0 0.0 0.00 0.00 0.00 1 1012.6
20260906041956 63 350 0.0 0.0 0.00 0.00 0.00 1 1012.5
20260906041453 63 349 0.0 0.0 0.00 0.00 0.00 1 1012.6
20260906040941 63 349 0.0 0.0 0.00 0.00 0.00 1 1012.6
20260906040428 63 350 0.0 0.0 0.00 0.00 0.00 1 1012.5
20260906035920 63 349 0.0 0.0 0.00 0.00 0.00 1 1012.5
20260906035408 63 350 0.0 0.0 0.00 0.00 0.00 1 1012.5
20260906034915 63 350 0.0 0.0 0.00 0.00 0.00 1 1012.6
20260906034401 63 350 0.0 0.0 0.00 0.00 0.00 1 1012.6
20260906033907 63 350 0.0 0.0 0.00 0.00 0.00 1 1012.6
20260906033408 63 349 0.0 0.0 0.00 0.00 0.00 1 1012.6
20260906032855 63 350 0.0 0.0 0.00 0.00 0.00 1 1012.6
20260906032348 63 349 0.0 0.0 0.00 0.00 0.00 1 1012.6
20260906031843 64 350 0.0 0.0 0.00 0.00 0.00 1 1012.6
20260906030731 64 350 0.0 0.0 0.00 0.00 0.00 1 1012.4
20260906030212 64 350 0.0 0.0 0.00 0.00 0.00 1 1012.4
20260906025038 64 350 0.0 0.0 0.00 0.00 0.00 1 1012.4
20260906024535 65 350 0.0 0.0 0.00 0.00 0.00 1 1012.4
20260906024025 65 349 0.0 0.0 0.00 0.00 0.00 1 1012.3
20260906023507 65 349 0.0 0.0 0.00 0.00 0.00 1 1012.3
20260906022955 65 349 0.0 0.0 0.00 0.00 0.00 1 1012.4
20260906022436 65 349 0.0 0.0 0.00 0.00 0.00 1 1012.3
20260906021934 66 349 0.0 0.0 0.00 0.00 0.00 1 1012.3
20260906021429 66 350 0.0 0.0 0.00 0.00 0.00 1 1012.3
20260906020302 66 350 0.0 0.0 0.00 0.00 0.00 1 1012.2
20260906015756 67 349 0.0 0.0 0.00 0.00 0.00 1 1012.1
20260906015258 67 350 0.0 0.0 0.00 0.00 0.00 1 1012.0
20260906014745 67 349 0.0 0.0 0.00 0.00 0.00 1 1011.9
20260906014233 67 350 0.0 0.0 0.00 0.00 0.00 1 1011.9
20260906013737 67 349 0.0 0.0 0.00 0.00 0.00 1 1011.8
20260906013239 68 350 0.0 0.0 0.00 0.00 0.00 1 1011.8
20260906012737 68 350 0.0 0.0 0.00 0.00 0.00 1 1011.8
20260906011607 68 349 0.0 0.0 0.00 0.00 0.00 1 1011.8
20260906011112 69 349 0.0 0.0 0.00 0.00 0.00 1 1011.7
20260906010600 69 350 0.0 0.0 0.00 0.00 0.00 1 1011.5
20260906010105 69 350 0.0 0.0 0.00 0.00 0.00 1 1011.6
20260906005553 69 350 0.0 0.0 0.00 0.00 0.00 1 1011.6
20260906005045 70 349 0.0 0.0 0.00 0.00 0.00 1 1011.5
20260906004534 70 349 0.0 0.0 0.00 0.00 0.00 1 1011.4
20260906004029 70 349 0.0 0.0 0.00 0.00 0.00 1 1011.4
20260906003538 70 349 0.0 0.0 0.00 0.00 0.00 1 1011.4
20260906003038 71 350 0.0 0.0 0.00 0.00 0.00 1 1011.4
20260906002547 71 350 0.0 0.0 0.00 0.00 0.00 1 1011.4
20260906002037 72 350 0.0 0.0 0.00 0.00 0.00 1 1011.4
20260906001526 72 349 0.0 0.0 0.00 0.00 0.00 1 1011.2
20260906001006 72 349 0.0 0.0 0.00 0.00 0.00 2 1011.2
20260906000451 73 349 0.0 0.0 0.00 0.00 0.00 6 1011.2
20260905235306 74 349 0.0 0.0 0.00 0.00 0.00 23 1011.0
20260905234801 74 350 0.0 0.0 0.00 0.00 0.00 27 1010.9
20260905234309 75 350 0.0 0.0 0.00 0.00 0.00 29 1010.9
20260905233140 76 349 0.0 0.0 0.00 0.00 0.00 38 1010.8
20260905232631 77 349 0.0 0.0 0.00 0.00 0.00 42 1010.8
20260905232137 77 349 0.0 0.0 0.00 0.00 0.00 45 1010.8
20260905231633 78 349 0.0 0.0 0.00 0.00 0.00 46 1010.6
20260905231120 78 349 0.0 0.0 0.00 0.00 0.00 46 1010.6
20260905230612 78 349 0.0 0.0 0.00 0.00 0.00 46 1010.6
20260905230119 78 349 0.0 0.0 0.00 0.00 0.00 47 1010.6
20260905224334 79 349 0.0 0.0 0.00 0.00 0.00 44 1010.5
20260905223819 79 349 0.0 0.0 0.00 0.00 0.00 45 1010.5
20260905223313 79 349 0.0 0.0 0.00 0.00 0.00 45 1010.4
20260905222809 79 349 0.0 0.0 0.00 0.00 0.00 43 1010.4
20260905222252 79 349 0.0 0.0 0.00 0.00 0.00 44 1010.4
20260905215906 81 271 0.0 0.0 0.00 0.00 0.00 48 1010.2
20260905215402 81 271 0.0 0.0 0.00 0.00 0.00 49 1010.1
20260905214912 81 271 0.0 0.0 0.00 0.00 0.00 49 1010.0
20260905214405 81 271 0.0 0.0 0.00 0.00 0.00 50 1009.9
20260905213848 81 269 0.0 2.0 0.00 0.00 0.00 49 1009.8
20260905213358 81 269 0.0 6.0 0.00 0.00 0.00 49 1009.8
20260905212849 81 19 0.0 6.0 0.00 0.00 0.00 46 1009.7
20260905211724 81 340 0.0 0.0 0.00 0.00 0.00 41 1009.6
20260905211210 81 340 0.0 0.0 0.00 0.00 0.00 44 1009.6
20260905210657 80 340 0.0 1.0 0.00 0.00 0.00 48 1009.6
20260905210149 81 276 0.0 0.0 0.00 0.00 0.00 47 1009.6
20260905205637 81 277 0.0 1.0 0.00 0.00 0.00 46 1009.6
20260905205123 81 338 0.0 2.0 0.00 0.00 0.00 48 1009.6
20260905204623 81 337 0.0 2.0 0.00 0.00 0.00 45 1009.7
20260905204104 81 22 0.0 2.0 0.00 0.00 0.00 46 1009.6
20260905203608 81 319 0.0 2.0 0.00 0.00 0.00 47 1009.7
20260905203116 81 345 0.0 0.0 0.00 0.00 0.00 48 1009.7
20260905202619 82 345 0.0 0.0 0.00 0.00 0.00 49 1009.7
20260905202104 82 345 0.0 5.0 0.00 0.00 0.00 50 1009.8
20260905201605 83 0 0.0 5.0 0.00 0.00 0.00 50 1009.8
20260905201110 83 290 0.0 5.0 0.00 0.00 0.00 49 1009.8
20260905200608 83 351 0.0 3.0 0.00 0.00 0.00 48 1009.8
20260905200058 83 306 0.0 2.0 0.00 0.00 0.00 47 1009.9
20260905195554 83 284 0.0 5.0 0.00 0.00 0.00 48 1009.8
20260905195042 83 5 0.0 5.0 0.00 0.00 0.00 48 1009.9
20260905193927 82 263 0.0 5.0 0.00 0.00 0.00 49 1009.9
20260905193420 82 286 0.0 6.0 0.00 0.00 0.00 43 1010.0
20260905192927 82 289 0.0 6.0 0.00 0.00 0.00 48 1010.0
20260905192437 82 44 0.0 4.0 0.00 0.00 0.00 47 1010.1
20260905191938 82 162 0.0 4.0 0.00 0.00 0.00 49 1010.2
20260905191425 82 281 0.0 2.0 0.00 0.00 0.00 48 1010.3
20260905190308 82 298 0.0 3.0 0.00 0.00 0.00 50 1010.3
20260905185801 82 295 0.0 2.0 0.00 0.00 0.00 49 1010.3
20260905185309 82 298 0.0 3.0 0.00 0.00 0.00 48 1010.4
20260905184810 82 293 0.0 3.0 0.00 0.00 0.00 43 1010.6
20260905184252 81 252 0.0 2.0 0.00 0.00 0.00 40 1010.6
20260905183744 81 284 0.0 2.0 0.00 0.00 0.00 41 1010.7
20260905183249 80 243 0.0 2.0 0.00 0.00 0.00 40 1010.7
20260905182057 80 32 0.0 5.0 0.00 0.00 0.00 43 1010.7
20260905181605 80 55 1.0 5.0 0.00 0.00 0.00 43 1010.7
20260905181054 80 315 0.0 3.0 0.00 0.00 0.00 36 1010.8
20260905180554 80 5 1.0 6.0 0.00 0.00 0.00 25 1010.9
20260905175439 79 296 1.0 6.0 0.00 0.00 0.00 40 1010.9
20260905174943 79 296 1.0 5.0 0.00 0.00 0.00 41 1010.9
20260905174440 79 275 1.0 5.0 0.00 0.00 0.00 41 1011.1
20260905173922 79 260 0.0 3.0 0.00 0.00 0.00 34 1011.1
20260905173430 79 192 0.0 3.0 0.00 0.00 0.00 31 1011.2
20260905172930 79 219 0.0 3.0 0.00 0.00 0.00 36 1011.2
20260905172436 79 288 0.0 3.0 0.00 0.00 0.00 36 1011.3
20260905171940 79 45 0.0 3.0 0.00 0.00 0.00 31 1011.3
20260905171447 79 223 0.0 2.0 0.00 0.00 0.00 32 1011.3
20260905170956 78 96 0.0 0.0 0.00 0.00 0.00 40 1011.4
20260905170442 78 96 0.0 3.0 0.00 0.00 0.00 36 1011.5
20260905165927 78 275 0.0 3.0 0.00 0.00 0.00 31 1011.6
20260905165410 78 242 0.0 2.0 0.00 0.00 0.00 14 1011.6
20260905164240 77 267 0.0 2.0 0.00 0.00 0.00 13 1011.5
20260905163721 77 269 0.0 2.0 0.00 0.00 0.00 18 1011.5
20260905163226 77 325 0.0 2.0 0.00 0.00 0.00 7 1011.7